| time (UTC) | temp F | wind direction | speed MPH | gust MPH | rain 1hr in | rain 24hr in | rain mn in | humidity % | barometer mb |
| 20260509112652 | 50 | 231 | 0.0 | 1.0 | 0.00 | 0.00 | 0.00 | 88 | 1023.7 |
| 20260509112151 | 50 | 231 | 0.0 | 2.0 | 0.00 | 0.00 | 0.00 | 88 | 1023.8 |
| 20260509111651 | 50 | 172 | 0.0 | 2.0 | 0.00 | 0.00 | 0.00 | 88 | 1023.7 |
| 20260509111151 | 50 | 167 | 0.0 | 3.0 | 0.00 | 0.00 | 0.00 | 88 | 1023.7 |
| 20260509110651 | 50 | 163 | 2.0 | 3.0 | 0.00 | 0.00 | 0.00 | 88 | 1023.6 |
| 20260509110151 | 50 | 159 | 1.0 | 3.0 | 0.00 | 0.00 | 0.00 | 88 | 1023.7 |
| 20260509105150 | 50 | 139 | 2.0 | 3.0 | 0.00 | 0.00 | 0.00 | 88 | 1023.6 |
| 20260509104650 | 50 | 127 | 0.0 | 3.0 | 0.00 | 0.00 | 0.00 | 88 | 1023.7 |
| 20260509104150 | 50 | 126 | 1.0 | 2.0 | 0.00 | 0.00 | 0.00 | 88 | 1023.7 |
| 20260509103650 | 50 | 183 | 0.0 | 3.0 | 0.00 | 0.00 | 0.00 | 88 | 1023.7 |
| 20260509103151 | 50 | 160 | 0.0 | 3.0 | 0.00 | 0.00 | 0.00 | 88 | 1023.7 |
| 20260509102651 | 50 | 127 | 0.0 | 3.0 | 0.00 | 0.00 | 0.00 | 88 | 1023.7 |
| 20260509102151 | 50 | 148 | 0.0 | 2.0 | 0.00 | 0.00 | 0.00 | 88 | 1023.7 |
| 20260509101650 | 50 | 160 | 0.0 | 3.0 | 0.00 | 0.00 | 0.00 | 88 | 1023.7 |
| 20260509101150 | 50 | 137 | 2.0 | 3.0 | 0.00 | 0.00 | 0.00 | 88 | 1023.7 |
| 20260509100650 | 50 | 179 | 2.0 | 3.0 | 0.00 | 0.00 | 0.00 | 88 | 1023.7 |
| 20260509100150 | 50 | 167 | 2.0 | 3.0 | 0.00 | 0.00 | 0.00 | 88 | 1023.7 |
| 20260509095650 | 50 | 134 | 1.0 | 3.0 | 0.00 | 0.00 | 0.00 | 88 | 1023.7 |
| 20260509095149 | 49 | 202 | 0.0 | 3.0 | 0.00 | 0.00 | 0.00 | 88 | 1023.7 |
| 20260509094650 | 49 | 194 | 1.0 | 3.0 | 0.00 | 0.00 | 0.00 | 88 | 1023.7 |
| 20260509094149 | 49 | 206 | 2.0 | 3.0 | 0.00 | 0.00 | 0.00 | 88 | 1023.7 |
| 20260509093649 | 49 | 203 | 2.0 | 3.0 | 0.00 | 0.00 | 0.00 | 88 | 1023.7 |
| 20260509093150 | 49 | 169 | 1.0 | 3.0 | 0.00 | 0.00 | 0.00 | 88 | 1023.7 |
| 20260509091649 | 50 | 163 | 2.0 | 3.0 | 0.00 | 0.00 | 0.00 | 87 | 1023.7 |
| 20260509091150 | 50 | 185 | 0.0 | 2.0 | 0.00 | 0.00 | 0.00 | 87 | 1023.6 |
| 20260509090649 | 50 | 200 | 1.0 | 2.0 | 0.00 | 0.00 | 0.00 | 87 | 1023.6 |
| 20260509090148 | 50 | 213 | 0.0 | 0.0 | 0.00 | 0.00 | 0.00 | 87 | 1023.7 |
| 20260509085648 | 50 | 213 | 0.0 | 1.0 | 0.00 | 0.00 | 0.00 | 87 | 1023.7 |
| 20260509085149 | 50 | 213 | 0.0 | 1.0 | 0.00 | 0.00 | 0.00 | 87 | 1023.8 |
| 20260509084649 | 50 | 213 | 0.0 | 1.0 | 0.00 | 0.00 | 0.00 | 87 | 1023.8 |
| 20260509084148 | 50 | 213 | 0.0 | 1.0 | 0.00 | 0.00 | 0.00 | 87 | 1023.8 |
| 20260509083649 | 50 | 213 | 0.0 | 2.0 | 0.00 | 0.00 | 0.00 | 87 | 1023.8 |
| 20260509083148 | 50 | 213 | 0.0 | 2.0 | 0.00 | 0.00 | 0.00 | 87 | 1023.9 |
| 20260509082648 | 51 | 221 | 2.0 | 2.0 | 0.00 | 0.00 | 0.00 | 86 | 1023.9 |
| 20260509082148 | 51 | 243 | 0.0 | 2.0 | 0.00 | 0.00 | 0.00 | 86 | 1024.0 |
| 20260509081148 | 51 | 253 | 0.0 | 0.0 | 0.00 | 0.00 | 0.00 | 84 | 1024.0 |
| 20260509080648 | 51 | 253 | 0.0 | 0.0 | 0.00 | 0.00 | 0.00 | 84 | 1023.9 |
| 20260509080148 | 52 | 253 | 0.0 | 1.0 | 0.00 | 0.00 | 0.00 | 83 | 1023.9 |
| 20260509075648 | 52 | 253 | 0.0 | 1.0 | 0.00 | 0.00 | 0.00 | 82 | 1023.9 |
| 20260509075148 | 52 | 253 | 0.0 | 2.0 | 0.00 | 0.00 | 0.00 | 82 | 1023.8 |
| 20260509074648 | 52 | 253 | 0.0 | 3.0 | 0.00 | 0.00 | 0.00 | 81 | 1023.8 |
| 20260509074148 | 52 | 253 | 1.0 | 3.0 | 0.00 | 0.00 | 0.00 | 81 | 1023.8 |
| 20260509073647 | 52 | 255 | 1.0 | 2.0 | 0.00 | 0.00 | 0.00 | 81 | 1023.7 |
| 20260509073148 | 52 | 254 | 1.0 | 2.0 | 0.00 | 0.00 | 0.00 | 81 | 1023.7 |
| 20260509072147 | 52 | 259 | 2.0 | 2.0 | 0.00 | 0.00 | 0.00 | 81 | 1023.7 |
| 20260509071147 | 52 | 259 | 0.0 | 2.0 | 0.00 | 0.00 | 0.00 | 81 | 1023.7 |
| 20260509070647 | 52 | 252 | 1.0 | 3.0 | 0.00 | 0.00 | 0.00 | 81 | 1023.6 |
| 20260509065147 | 52 | 260 | 1.0 | 4.0 | 0.00 | 0.00 | 0.00 | 81 | 1023.6 |
| 20260509064647 | 52 | 270 | 2.0 | 3.0 | 0.00 | 0.00 | 0.00 | 81 | 1023.6 |
| 20260509064147 | 52 | 257 | 2.0 | 5.0 | 0.00 | 0.00 | 0.00 | 81 | 1023.7 |
| 20260509063646 | 52 | 255 | 3.0 | 5.0 | 0.00 | 0.00 | 0.00 | 81 | 1023.6 |
| 20260509063146 | 51 | 281 | 3.0 | 4.0 | 0.00 | 0.00 | 0.00 | 81 | 1023.5 |
| 20260509062146 | 51 | 250 | 2.0 | 3.0 | 0.00 | 0.00 | 0.00 | 81 | 1023.5 |
| 20260509061646 | 51 | 280 | 2.0 | 4.0 | 0.00 | 0.00 | 0.00 | 81 | 1023.5 |
| 20260509061146 | 52 | 253 | 1.0 | 4.0 | 0.00 | 0.00 | 0.00 | 81 | 1023.5 |
| 20260509060646 | 52 | 261 | 3.0 | 4.0 | 0.00 | 0.00 | 0.00 | 81 | 1023.5 |
| 20260509060146 | 52 | 269 | 4.0 | 4.0 | 0.00 | 0.00 | 0.00 | 81 | 1023.5 |
| 20260509055646 | 52 | 268 | 2.0 | 4.0 | 0.00 | 0.00 | 0.00 | 80 | 1023.5 |
| 20260509055146 | 52 | 266 | 1.0 | 5.0 | 0.00 | 0.00 | 0.00 | 80 | 1023.5 |
| 20260509054146 | 52 | 253 | 3.0 | 5.0 | 0.00 | 0.00 | 0.00 | 80 | 1023.6 |
| 20260509053646 | 52 | 285 | 3.0 | 5.0 | 0.00 | 0.00 | 0.00 | 80 | 1023.6 |
| 20260509052646 | 52 | 262 | 1.0 | 5.0 | 0.00 | 0.00 | 0.00 | 80 | 1023.5 |
| 20260509052145 | 52 | 264 | 2.0 | 5.0 | 0.00 | 0.00 | 0.00 | 80 | 1023.5 |
| 20260509051645 | 52 | 250 | 2.0 | 6.0 | 0.00 | 0.00 | 0.00 | 80 | 1023.5 |
| 20260509050145 | 52 | 261 | 2.0 | 5.0 | 0.00 | 0.00 | 0.00 | 80 | 1023.5 |
| 20260509045645 | 52 | 259 | 4.0 | 5.0 | 0.00 | 0.00 | 0.00 | 79 | 1023.4 |
| 20260509045144 | 52 | 269 | 3.0 | 5.0 | 0.00 | 0.00 | 0.00 | 79 | 1023.4 |
| 20260509044144 | 52 | 256 | 1.0 | 3.0 | 0.00 | 0.00 | 0.00 | 79 | 1023.4 |
| 20260509043644 | 52 | 251 | 3.0 | 4.0 | 0.00 | 0.00 | 0.00 | 79 | 1023.3 |
| 20260509043144 | 52 | 268 | 2.0 | 4.0 | 0.00 | 0.00 | 0.00 | 78 | 1023.3 |
| 20260509042644 | 52 | 261 | 0.0 | 3.0 | 0.00 | 0.00 | 0.00 | 79 | 1023.3 |
| 20260509041644 | 52 | 255 | 2.0 | 5.0 | 0.00 | 0.00 | 0.00 | 79 | 1023.3 |
| 20260509041144 | 52 | 257 | 2.0 | 5.0 | 0.00 | 0.00 | 0.00 | 79 | 1023.3 |
| 20260509040644 | 52 | 263 | 2.0 | 4.0 | 0.00 | 0.00 | 0.00 | 79 | 1023.3 |
| 20260509035644 | 52 | 257 | 2.0 | 4.0 | 0.00 | 0.00 | 0.00 | 79 | 1023.2 |
| 20260509034644 | 52 | 258 | 2.0 | 5.0 | 0.00 | 0.00 | 0.00 | 78 | 1023.1 |
| 20260509034143 | 52 | 285 | 3.0 | 5.0 | 0.00 | 0.00 | 0.00 | 78 | 1023.1 |
| 20260509033643 | 52 | 276 | 1.0 | 5.0 | 0.00 | 0.00 | 0.00 | 78 | 1023.0 |
| 20260509032643 | 52 | 267 | 5.0 | 5.0 | 0.00 | 0.00 | 0.00 | 78 | 1023.0 |
| 20260509031643 | 52 | 261 | 1.0 | 5.0 | 0.00 | 0.00 | 0.00 | 78 | 1023.0 |
| 20260509031143 | 53 | 308 | 3.0 | 5.0 | 0.00 | 0.00 | 0.00 | 77 | 1023.0 |
| 20260509030643 | 53 | 265 | 4.0 | 6.0 | 0.00 | 0.00 | 0.00 | 77 | 1022.9 |
| 20260509030142 | 53 | 284 | 1.0 | 6.0 | 0.00 | 0.00 | 0.00 | 77 | 1022.9 |
| 20260509025643 | 53 | 261 | 0.0 | 5.0 | 0.00 | 0.00 | 0.00 | 76 | 1022.9 |
| 20260509025142 | 53 | 248 | 3.0 | 5.0 | 0.00 | 0.00 | 0.00 | 76 | 1022.9 |
| 20260509024142 | 54 | 257 | 0.0 | 6.0 | 0.00 | 0.00 | 0.00 | 74 | 1022.8 |
| 20260509023642 | 54 | 283 | 4.0 | 6.0 | 0.00 | 0.00 | 0.00 | 73 | 1022.8 |
| 20260509022642 | 55 | 283 | 5.0 | 6.0 | 0.00 | 0.00 | 0.00 | 72 | 1022.7 |
| 20260509022142 | 55 | 307 | 2.0 | 6.0 | 0.00 | 0.00 | 0.00 | 71 | 1022.7 |
| 20260509021642 | 55 | 279 | 5.0 | 8.0 | 0.00 | 0.00 | 0.00 | 71 | 1022.7 |
| 20260509021142 | 55 | 293 | 4.0 | 8.0 | 0.00 | 0.00 | 0.00 | 72 | 1022.7 |
| 20260509020142 | 54 | 273 | 3.0 | 6.0 | 0.00 | 0.00 | 0.00 | 73 | 1022.8 |
| 20260509015642 | 54 | 262 | 3.0 | 5.0 | 0.00 | 0.00 | 0.00 | 73 | 1022.6 |
| 20260509015142 | 54 | 260 | 3.0 | 5.0 | 0.00 | 0.00 | 0.00 | 73 | 1022.6 |
| 20260509014641 | 55 | 295 | 2.0 | 5.0 | 0.00 | 0.00 | 0.00 | 73 | 1022.5 |
| 20260509013642 | 55 | 290 | 0.0 | 4.0 | 0.00 | 0.00 | 0.00 | 74 | 1022.6 |
| 20260509013141 | 55 | 335 | 2.0 | 4.0 | 0.00 | 0.00 | 0.00 | 74 | 1022.5 |
| 20260509012642 | 55 | 307 | 2.0 | 5.0 | 0.00 | 0.00 | 0.00 | 74 | 1022.6 |
| 20260509012141 | 55 | 250 | 1.0 | 6.0 | 0.00 | 0.00 | 0.00 | 74 | 1022.6 |
| 20260509011141 | 55 | 285 | 0.0 | 6.0 | 0.00 | 0.00 | 0.00 | 74 | 1022.6 |
| 20260509010641 | 56 | 271 | 3.0 | 6.0 | 0.00 | 0.00 | 0.00 | 73 | 1022.7 |
| 20260509010211 | 55 | 350 | 3.0 | 4.0 | 0.00 | 0.00 | 0.00 | 74 | 1022.8 |
| 20260509005641 | 55 | 266 | 0.0 | 3.0 | 0.00 | 0.00 | 0.00 | 74 | 1022.8 |
| 20260509005140 | 55 | 265 | 1.0 | 4.0 | 0.00 | 0.00 | 0.00 | 75 | 1022.8 |
| 20260509004640 | 55 | 300 | 2.0 | 4.0 | 0.00 | 0.00 | 0.00 | 74 | 1022.8 |
| 20260509004141 | 55 | 279 | 3.0 | 5.0 | 0.00 | 0.00 | 0.00 | 75 | 1022.7 |
| 20260509003640 | 55 | 271 | 1.0 | 5.0 | 0.00 | 0.00 | 0.00 | 74 | 1022.8 |
| 20260509003140 | 54 | 275 | 1.0 | 6.0 | 0.00 | 0.00 | 0.00 | 75 | 1022.7 |
| 20260509002640 | 54 | 329 | 1.0 | 7.0 | 0.00 | 0.00 | 0.00 | 74 | 1022.7 |
| 20260509002140 | 54 | 266 | 2.0 | 7.0 | 0.00 | 0.00 | 0.00 | 75 | 1022.8 |
| 20260509001140 | 55 | 266 | 4.0 | 9.0 | 0.00 | 0.00 | 0.00 | 74 | 1022.9 |
| 20260509000640 | 55 | 290 | 1.0 | 4.0 | 0.00 | 0.00 | 0.00 | 75 | 1022.9 |
| 20260509000211 | 55 | 323 | 0.0 | 4.0 | 0.00 | 0.00 | 0.00 | 74 | 1022.8 |
| 20260508235640 | 54 | 342 | 0.0 | 4.0 | 0.00 | 0.00 | 0.00 | 74 | 1022.8 |
| 20260508235139 | 54 | 309 | 3.0 | 4.0 | 0.00 | 0.00 | 0.00 | 74 | 1022.8 |
| 20260508234139 | 54 | 268 | 3.0 | 5.0 | 0.00 | 0.00 | 0.00 | 73 | 1022.8 |
| 20260508233639 | 54 | 265 | 0.0 | 5.0 | 0.00 | 0.00 | 0.00 | 76 | 1022.7 |
| 20260508233139 | 54 | 259 | 0.0 | 7.0 | 0.00 | 0.00 | 0.00 | 75 | 1022.7 |
| 20260508231639 | 55 | 45 | 2.0 | 6.0 | 0.00 | 0.00 | 0.00 | 75 | 1022.8 |
| 20260508231139 | 54 | 264 | 1.0 | 8.0 | 0.00 | 0.00 | 0.00 | 75 | 1022.7 |
| 20260508230709 | 54 | 38 | 4.0 | 8.0 | 0.00 | 0.00 | 0.00 | 75 | 1022.7 |
| 20260508230208 | 55 | 299 | 4.0 | 5.0 | 0.00 | 0.00 | 0.00 | 74 | 1022.7 |
| 20260508225638 | 54 | 304 | 2.0 | 5.0 | 0.00 | 0.00 | 0.00 | 74 | 1022.6 |
| 20260508224709 | 54 | 341 | 2.0 | 4.0 | 0.00 | 0.00 | 0.00 | 75 | 1022.5 |
| 20260508224138 | 54 | 351 | 1.0 | 4.0 | 0.00 | 0.00 | 0.00 | 75 | 1022.5 |
| 20260508223639 | 54 | 233 | 0.0 | 6.0 | 0.00 | 0.00 | 0.00 | 75 | 1022.5 |
| 20260508223138 | 54 | 291 | 2.0 | 6.0 | 0.00 | 0.00 | 0.00 | 75 | 1022.5 |
| 20260508222638 | 54 | 267 | 0.0 | 6.0 | 0.00 | 0.00 | 0.00 | 75 | 1022.6 |
| 20260508222208 | 54 | 302 | 1.0 | 6.0 | 0.00 | 0.00 | 0.00 | 75 | 1022.7 |
| 20260508221708 | 54 | 275 | 3.0 | 6.0 | 0.00 | 0.00 | 0.00 | 75 | 1022.7 |
| 20260508220638 | 54 | 338 | 6.0 | 7.0 | 0.00 | 0.00 | 0.00 | 75 | 1022.6 |
| 20260508220208 | 54 | 260 | 1.0 | 7.0 | 0.00 | 0.00 | 0.00 | 75 | 1022.7 |
| 20260508215708 | 54 | 254 | 0.0 | 7.0 | 0.00 | 0.00 | 0.00 | 74 | 1022.7 |
| 20260508215138 | 54 | 292 | 2.0 | 6.0 | 0.00 | 0.00 | 0.00 | 75 | 1022.7 |
| 20260508214637 | 54 | 349 | 1.0 | 7.0 | 0.00 | 0.00 | 0.00 | 74 | 1022.7 |
| 20260508214208 | 54 | 318 | 2.0 | 7.0 | 0.00 | 0.00 | 0.00 | 74 | 1022.7 |
| 20260508213637 | 54 | 295 | 3.0 | 6.0 | 0.00 | 0.00 | 0.00 | 73 | 1022.5 |
| 20260508213207 | 54 | 301 | 3.0 | 5.0 | 0.00 | 0.00 | 0.00 | 74 | 1022.5 |
| 20260508212637 | 55 | 290 | 1.0 | 4.0 | 0.00 | 0.00 | 0.00 | 73 | 1022.6 |
| 20260508211637 | 55 | 27 | 4.0 | 5.0 | 0.00 | 0.00 | 0.00 | 74 | 1022.5 |
| 20260508211137 | 55 | 21 | 2.0 | 6.0 | 0.00 | 0.00 | 0.00 | 74 | 1022.5 |
| 20260508210706 | 55 | 10 | 2.0 | 7.0 | 0.00 | 0.00 | 0.00 | 74 | 1022.4 |
| 20260508210206 | 55 | 250 | 3.0 | 7.0 | 0.00 | 0.00 | 0.00 | 73 | 1022.4 |
| 20260508205707 | 55 | 217 | 0.0 | 4.0 | 0.00 | 0.00 | 0.00 | 76 | 1022.4 |
| 20260508205137 | 55 | 240 | 2.0 | 5.0 | 0.00 | 0.00 | 0.00 | 75 | 1022.3 |
| 20260508204707 | 54 | 249 | 1.0 | 5.0 | 0.00 | 0.00 | 0.00 | 77 | 1022.2 |
| 20260508204206 | 54 | 264 | 5.0 | 5.0 | 0.00 | 0.00 | 0.00 | 78 | 1022.3 |
| 20260508203636 | 53 | 279 | 2.0 | 5.0 | 0.00 | 0.00 | 0.00 | 79 | 1022.3 |
| 20260508203136 | 53 | 238 | 3.0 | 5.0 | 0.00 | 0.00 | 0.00 | 78 | 1022.2 |
| 20260508202706 | 53 | 257 | 1.0 | 6.0 | 0.00 | 0.00 | 0.00 | 79 | 1022.1 |
| 20260508202206 | 53 | 293 | 3.0 | 6.0 | 0.00 | 0.00 | 0.00 | 79 | 1022.1 |
| 20260508201705 | 52 | 285 | 2.0 | 7.0 | 0.00 | 0.00 | 0.00 | 81 | 1022.0 |
| 20260508201206 | 52 | 279 | 2.0 | 7.0 | 0.00 | 0.00 | 0.00 | 80 | 1022.0 |
| 20260508200706 | 52 | 329 | 3.0 | 6.0 | 0.00 | 0.00 | 0.00 | 81 | 1022.1 |
| 20260508200206 | 52 | 255 | 1.0 | 6.0 | 0.00 | 0.00 | 0.00 | 81 | 1022.1 |
| 20260508195705 | 52 | 300 | 3.0 | 4.0 | 0.00 | 0.00 | 0.00 | 81 | 1022.0 |
| 20260508195205 | 52 | 245 | 1.0 | 4.0 | 0.00 | 0.00 | 0.00 | 82 | 1022.0 |
| 20260508193705 | 52 | 294 | 0.0 | 2.0 | 0.00 | 0.00 | 0.00 | 82 | 1022.0 |
| 20260508193205 | 51 | 245 | 0.0 | 3.0 | 0.00 | 0.00 | 0.00 | 82 | 1022.0 |
| 20260508192704 | 51 | 281 | 0.0 | 3.0 | 0.00 | 0.00 | 0.00 | 82 | 1021.8 |
| 20260508192205 | 51 | 252 | 2.0 | 4.0 | 0.00 | 0.00 | 0.00 | 82 | 1021.8 |
| 20260508191205 | 51 | 239 | 0.0 | 2.0 | 0.00 | 0.00 | 0.00 | 82 | 1021.7 |
| 20260508190704 | 51 | 330 | 0.0 | 1.0 | 0.00 | 0.00 | 0.00 | 83 | 1021.7 |
| 20260508190205 | 51 | 330 | 0.0 | 2.0 | 0.00 | 0.00 | 0.00 | 83 | 1021.7 |
| 20260508185704 | 51 | 329 | 0.0 | 5.0 | 0.00 | 0.00 | 0.00 | 84 | 1021.7 |
| 20260508185204 | 51 | 238 | 0.0 | 5.0 | 0.00 | 0.00 | 0.00 | 86 | 1021.6 |
| 20260508184204 | 50 | 302 | 0.0 | 2.0 | 0.00 | 0.00 | 0.00 | 87 | 1021.5 |
| 20260508183704 | 50 | 302 | 0.0 | 2.0 | 0.00 | 0.00 | 0.00 | 88 | 1021.6 |
| 20260508183204 | 50 | 302 | 1.0 | 4.0 | 0.00 | 0.00 | 0.00 | 88 | 1021.5 |
| 20260508182704 | 50 | 77 | 0.0 | 4.0 | 0.00 | 0.00 | 0.00 | 88 | 1021.5 |
| 20260508182203 | 50 | 71 | 4.0 | 4.0 | 0.00 | 0.00 | 0.00 | 89 | 1021.5 |
| 20260508181203 | 50 | 34 | 0.0 | 2.0 | 0.00 | 0.00 | 0.00 | 90 | 1021.4 |
| 20260508180703 | 49 | 265 | 1.0 | 3.0 | 0.00 | 0.00 | 0.00 | 90 | 1021.5 |
| 20260508175704 | 49 | 100 | 2.0 | 4.0 | 0.00 | 0.00 | 0.00 | 91 | 1021.2 |
| 20260508175204 | 50 | 308 | 0.0 | 2.0 | 0.00 | 0.00 | 0.00 | 91 | 1021.2 |
| 20260508174703 | 50 | 91 | 0.0 | 2.0 | 0.00 | 0.00 | 0.00 | 91 | 1021.2 |
| 20260508174203 | 50 | 92 | 0.0 | 3.0 | 0.00 | 0.00 | 0.00 | 91 | 1021.2 |
| 20260508173703 | 50 | 91 | 0.0 | 4.0 | 0.00 | 0.00 | 0.00 | 90 | 1021.1 |
| 20260508173203 | 50 | 99 | 3.0 | 5.0 | 0.00 | 0.00 | 0.00 | 89 | 1021.0 |
| 20260508172703 | 50 | 94 | 2.0 | 5.0 | 0.00 | 0.00 | 0.00 | 88 | 1020.9 |
| 20260508172203 | 50 | 101 | 0.0 | 4.0 | 0.00 | 0.00 | 0.00 | 87 | 1020.8 |
| 20260508171703 | 51 | 67 | 0.0 | 3.0 | 0.00 | 0.00 | 0.00 | 87 | 1020.9 |
| 20260508170703 | 51 | 122 | 0.0 | 4.0 | 0.00 | 0.00 | 0.00 | 87 | 1020.9 |
| 20260508170203 | 51 | 97 | 2.0 | 5.0 | 0.00 | 0.00 | 0.00 | 87 | 1020.6 |
| 20260508165702 | 51 | 90 | 2.0 | 6.0 | 0.00 | 0.00 | 0.00 | 87 | 1020.4 |
| 20260508165202 | 51 | 89 | 3.0 | 6.0 | 0.00 | 0.00 | 0.00 | 87 | 1020.4 |
| 20260508164202 | 51 | 98 | 4.0 | 6.0 | 0.00 | 0.00 | 0.00 | 87 | 1020.3 |
| 20260508163702 | 51 | 111 | 0.0 | 5.0 | 0.00 | 0.00 | 0.00 | 86 | 1020.3 |
| 20260508163202 | 51 | 108 | 2.0 | 7.0 | 0.00 | 0.00 | 0.00 | 87 | 1020.1 |
| 20260508162702 | 51 | 86 | 4.0 | 7.0 | 0.00 | 0.00 | 0.00 | 86 | 1019.9 |
| 20260508162201 | 52 | 96 | 3.0 | 3.0 | 0.00 | 0.00 | 0.00 | 84 | 1020.0 |
| 20260508161701 | 52 | 90 | 2.0 | 2.0 | 0.00 | 0.00 | 0.00 | 84 | 1019.9 |
| 20260508161201 | 51 | 278 | 0.0 | 3.0 | 0.00 | 0.00 | 0.00 | 85 | 1019.9 |
| 20260508160702 | 51 | 278 | 2.0 | 3.0 | 0.00 | 0.00 | 0.00 | 84 | 1019.8 |
| 20260508160201 | 51 | 274 | 0.0 | 3.0 | 0.00 | 0.00 | 0.00 | 85 | 1019.9 |
| 20260508154701 | 51 | 282 | 3.0 | 6.0 | 0.00 | 0.00 | 0.00 | 85 | 1019.6 |
| 20260508154201 | 51 | 303 | 3.0 | 6.0 | 0.00 | 0.00 | 0.00 | 86 | 1019.7 |
| 20260508153201 | 51 | 245 | 4.0 | 7.0 | 0.00 | 0.00 | 0.00 | 86 | 1019.7 |
| 20260508152701 | 50 | 256 | 3.0 | 7.0 | 0.00 | 0.00 | 0.00 | 87 | 1019.7 |
| 20260508152200 | 50 | 300 | 4.0 | 7.0 | 0.00 | 0.00 | 0.00 | 88 | 1019.7 |
| 20260508151200 | 50 | 249 | 2.0 | 6.0 | 0.00 | 0.00 | 0.00 | 88 | 1019.6 |
| 20260508150701 | 50 | 239 | 2.0 | 6.0 | 0.00 | 0.00 | 0.00 | 88 | 1019.5 |
| 20260508150200 | 50 | 267 | 1.0 | 7.0 | 0.00 | 0.00 | 0.00 | 88 | 1019.5 |
| 20260508145700 | 50 | 250 | 2.0 | 9.0 | 0.00 | 0.00 | 0.00 | 88 | 1019.5 |
| 20260508145200 | 50 | 279 | 2.0 | 9.0 | 0.00 | 0.00 | 0.00 | 88 | 1019.6 |
| 20260508144700 | 49 | 293 | 1.0 | 8.0 | 0.00 | 0.00 | 0.00 | 88 | 1019.4 |
| 20260508144200 | 49 | 258 | 2.0 | 11.0 | 0.00 | 0.00 | 0.00 | 88 | 1019.4 |
| 20260508143700 | 49 | 239 | 3.0 | 11.0 | 0.00 | 0.00 | 0.00 | 88 | 1019.3 |
| 20260508143200 | 49 | 285 | 0.0 | 10.0 | 0.00 | 0.00 | 0.00 | 89 | 1019.2 |
| 20260508142659 | 49 | 245 | 4.0 | 10.0 | 0.00 | 0.00 | 0.00 | 89 | 1019.2 |
| 20260508142200 | 49 | 289 | 7.0 | 10.0 | 0.00 | 0.00 | 0.00 | 89 | 1019.1 |
| 20260508141659 | 49 | 271 | 2.0 | 8.0 | 0.00 | 0.00 | 0.00 | 89 | 1018.9 |
| 20260508140659 | 49 | 252 | 4.0 | 8.0 | 0.00 | 0.00 | 0.00 | 89 | 1018.8 |
| 20260508140200 | 49 | 276 | 1.0 | 8.0 | 0.00 | 0.00 | 0.00 | 89 | 1018.8 |
| 20260508135700 | 49 | 319 | 5.0 | 8.0 | 0.00 | 0.00 | 0.00 | 89 | 1018.7 |
| 20260508135159 | 49 | 256 | 1.0 | 8.0 | 0.00 | 0.00 | 0.00 | 89 | 1018.7 |
| 20260508134159 | 49 | 285 | 3.0 | 9.0 | 0.00 | 0.00 | 0.00 | 89 | 1018.5 |
| 20260508133659 | 49 | 278 | 5.0 | 8.0 | 0.00 | 0.00 | 0.00 | 90 | 1018.4 |
| 20260508133159 | 49 | 319 | 3.0 | 8.0 | 0.00 | 0.00 | 0.00 | 90 | 1018.4 |
| 20260508132159 | 49 | 264 | 4.0 | 8.0 | 0.00 | 0.00 | 0.00 | 90 | 1018.4 |
| 20260508131659 | 49 | 287 | 3.0 | 8.0 | 0.00 | 0.00 | 0.00 | 90 | 1018.3 |
| 20260508131158 | 49 | 264 | 6.0 | 6.0 | 0.00 | 0.00 | 0.00 | 90 | 1018.2 |
| 20260508130658 | 49 | 283 | 2.0 | 7.0 | 0.00 | 0.00 | 0.00 | 90 | 1018.2 |
| 20260508130158 | 49 | 242 | 3.0 | 7.0 | 0.00 | 0.00 | 0.00 | 90 | 1018.2 |
| 20260508125658 | 49 | 259 | 4.0 | 7.0 | 0.00 | 0.00 | 0.00 | 90 | 1018.2 |
| 20260508125158 | 49 | 262 | 2.0 | 8.0 | 0.00 | 0.00 | 0.00 | 90 | 1018.2 |
| 20260508124658 | 49 | 268 | 2.0 | 8.0 | 0.00 | 0.00 | 0.00 | 90 | 1018.1 |
| 20260508124158 | 49 | 286 | 4.0 | 8.0 | 0.00 | 0.00 | 0.00 | 90 | 1018.1 |
| 20260508123658 | 49 | 310 | 3.0 | 7.0 | 0.00 | 0.00 | 0.00 | 90 | 1018.2 |
| 20260508123157 | 49 | 293 | 3.0 | 7.0 | 0.00 | 0.00 | 0.00 | 90 | 1018.1 |
| 20260508122658 | 49 | 252 | 2.0 | 6.0 | 0.00 | 0.00 | 0.00 | 90 | 1018.0 |
| 20260508122157 | 49 | 275 | 3.0 | 9.0 | 0.00 | 0.00 | 0.00 | 90 | 1018.1 |
| 20260508121658 | 49 | 257 | 3.0 | 10.0 | 0.00 | 0.00 | 0.00 | 91 | 1018.1 |
| 20260508120657 | 48 | 221 | 3.0 | 7.0 | 0.00 | 0.00 | 0.00 | 91 | 1017.9 |
| 20260508120158 | 48 | 285 | 1.0 | 7.0 | 0.00 | 0.00 | 0.00 | 91 | 1017.9 |
| 20260508115657 | 48 | 236 | 1.0 | 7.0 | 0.00 | 0.00 | 0.00 | 91 | 1017.9 |
| 20260508115157 | 48 | 279 | 0.0 | 6.0 | 0.00 | 0.00 | 0.00 | 91 | 1017.8 |
| 20260508114657 | 48 | 284 | 2.0 | 6.0 | 0.00 | 0.00 | 0.00 | 91 | 1017.9 |
| 20260508114157 | 48 | 255 | 2.0 | 6.0 | 0.00 | 0.00 | 0.00 | 91 | 1017.9 |
| 20260508113657 | 48 | 289 | 4.0 | 5.0 | 0.00 | 0.00 | 0.00 | 91 | 1017.8 |
| 20260508113156 | 48 | 263 | 1.0 | 5.0 | 0.00 | 0.00 | 0.00 | 92 | 1017.8 |